Weather History for Bowling Green, KY

Change the Weather History Date:

Thursday, January 17, 2013

  Actual Average Record
Temperature  
Mean Temperature 40 °F 35 °F  
Max Temperature 48 °F 45 °F 72 °F (1894)
Min Temperature 32 °F 26 °F -15 °F (1982)
Degree Days  
Heating Degree Days 25 30  
Month to date heating degree days 403 505  
Since 1 July heating degree days 1828 2089  
Cooling Degree Days 0 0  
Month to date cooling degree days 0 0  
Year to date cooling degree days 0 0  
Moisture  
Dew Point 29 °F    
Average Humidity 74    
Maximum Humidity 89    
Minimum Humidity 58    
Precipitation  
Precipitation 0.00 in 0.11 in 1.37 in (2006)
Month to date precipitation 3.72 1.94  
Year to date precipitation 3.72 1.94  
Snow  
Snow 0.00 in 0.10 in 5.00 in (1994)
Month to date snowfall 0.1 1.6  
Since 1 July snowfall 0.1 2.8  
Snow Depth 0.00 in    
Sea Level Pressure  
Sea Level Pressure 30.24 in    
Wind  
Wind Speed 6 mph (NNE)    
Max Wind Speed 18 mph    
Max Gust Speed 24 mph    
Visibility 9 miles    
Events      
T = Trace of Precipitation, MM = Missing Value Source: NWS Daily Summary

Daily Weather History Graph

Daily Weather History Graph

Search for Another Location

Airport:

Trip Planner

Search our weather history database for the weather conditions in past years. The results will help you decide how hot, cold, wet, or windy it might be!

Date:

Astronomy

Jan. 17, 2013 Rise Set
Actual Time 6:57 AM CST 4:55 PM CST
Civil Twilight 6:28 AM CST 5:23 PM CST
Nautical Twilight 5:57 AM CST 5:55 PM CST
Astronomical Twilight 5:26 AM CST 6:26 PM CST
Moon 10:14 AM CST (1/17) 11:34 PM CST (1/17)
Length of Visible Light 10h 54m
Length of Day
9h 57m
Waxing Crescent, 38% of the Moon is Illuminated
Jan 17
Waxing Crescent
Jan 18
First Quarter
Jan 26
Full
Feb 3
Last Quarter
Feb 10
New

Hourly Weather History & Observations

Time (CST) Temp. Windchill Dew Point Humidity Pressure Visibility Wind Dir Wind Speed Gust Speed Precip Events Conditions
12:53 AM 34.0 °F 31.0 °F 30.0 °F 85% 30.16 in 6.0 mi NNE 3.5 mph - N/A   Overcast
1:53 AM 34.0 °F - 30.0 °F 85% 30.17 in 6.0 mi Calm Calm - N/A   Overcast
2:53 AM 34.0 °F - 28.9 °F 82% 30.16 in 7.0 mi Calm Calm - N/A   Overcast
3:53 AM 33.1 °F 28.7 °F 28.9 °F 85% 30.14 in 6.0 mi NNE 4.6 mph - N/A   Scattered Clouds
4:53 AM 33.1 °F 30.0 °F 28.0 °F 82% 30.13 in 8.0 mi NNE 3.5 mph - N/A   Overcast
5:53 AM 33.1 °F 30.0 °F 26.1 °F 75% 30.14 in 10.0 mi North 3.5 mph - N/A   Clear
6:53 AM 33.1 °F - 27.0 °F 78% 30.16 in 10.0 mi Calm Calm - N/A   Clear
7:53 AM 33.1 °F 30.0 °F 27.0 °F 78% 30.18 in 8.0 mi NNE 3.5 mph - N/A   Mostly Cloudy
8:53 AM 35.1 °F 27.9 °F 27.0 °F 72% 30.18 in 10.0 mi North 9.2 mph - N/A   Partly Cloudy
9:53 AM 39.0 °F 31.0 °F 28.9 °F 67% 30.18 in 10.0 mi NNE 13.8 mph 18.4 mph N/A   Clear
10:53 AM 42.1 °F 35.2 °F 30.9 °F 65% 30.15 in 10.0 mi NNE 12.7 mph 17.3 mph N/A   Clear
11:53 AM 44.1 °F 37.7 °F 32.0 °F 63% 30.14 in 10.0 mi NNE 12.7 mph 21.9 mph N/A   Clear
12:53 PM 46.0 °F 39.3 °F 33.1 °F 61% 30.13 in 10.0 mi NE 16.1 mph - N/A   Mostly Cloudy
1:53 PM 46.0 °F 40.2 °F 32.0 °F 58% 30.12 in 10.0 mi North 12.7 mph - N/A   Mostly Cloudy
2:53 PM 46.0 °F 40.2 °F 32.0 °F 58% 30.15 in 10.0 mi NNE 12.7 mph - N/A   Mostly Cloudy
3:53 PM 45.0 °F 40.6 °F 33.1 °F 63% 30.20 in 10.0 mi ENE 8.1 mph - N/A   Overcast
4:53 PM 41.0 °F 37.1 °F 32.0 °F 70% 30.26 in 10.0 mi ENE 5.8 mph - N/A   Scattered Clouds
5:53 PM 42.1 °F - 33.1 °F 70% 30.30 in 10.0 mi Calm Calm - N/A   Mostly Cloudy
6:53 PM 43.0 °F - 33.1 °F 68% 30.34 in 10.0 mi Calm Calm - N/A   Overcast
7:29 PM 41.0 °F 34.7 °F 30.2 °F 65% 30.36 in 10.0 mi NNW 10.4 mph - N/A   Overcast
7:46 PM 39.2 °F 32.5 °F 28.4 °F 65% 30.37 in 10.0 mi NNW 10.4 mph 18.4 mph N/A   Scattered Clouds
7:53 PM 39.9 °F 34.5 °F 28.0 °F 63% 30.39 in 10.0 mi NNW 8.1 mph 18.4 mph N/A   Partly Cloudy
8:53 PM 37.9 °F 34.4 °F 28.0 °F 68% 30.42 in 10.0 mi Variable 4.6 mph - N/A   Clear
9:53 PM 36.0 °F 30.3 °F 27.0 °F 70% 30.43 in 10.0 mi NW 6.9 mph - N/A   Clear
10:53 PM 34.0 °F 28.8 °F 25.0 °F 70% 30.45 in 10.0 mi NNW 5.8 mph - N/A   Clear
11:53 PM 33.1 °F 28.7 °F 25.0 °F 72% 30.46 in 10.0 mi NNW 4.6 mph - N/A   Clear